����,���ϕ���(m/s),���ϕ���,�ő�u�ԕ���(m/s),�ő啗��������,�C��(��),���x(%),10���Ԉړ��ώZ�J��(mm),1���Ԉړ��ώZ�J��(mm),���J��(mm),�݌v�J��(mm)
2021-04-05T00:00:00+09:00,2.9,�k�k��,6.2,�k�k��,10.4,89.4,0,0,16.5,16.5
2021-04-05T00:01:00+09:00,3.1,�k�k��,6.2,�k�k��,10.4,89.5,0,0,0,16.5
2021-04-05T00:02:00+09:00,3,�k�k��,6.2,�k�k��,10.4,89.6,0,0,0,16.5
2021-04-05T00:03:00+09:00,3.1,�k�k��,6.2,�k�k��,10.3,89.6,0,0,0,16.5
2021-04-05T00:04:00+09:00,3.2,�k�k��,6.2,�k�k��,10.3,89.6,0,0,0,16.5
2021-04-05T00:05:00+09:00,3.2,�k�k��,6.2,�k�k��,10.3,89.9,0,0,0,16.5
2021-04-05T00:06:00+09:00,3.2,�k�k��,6.2,�k�k��,10.3,89.9,0,0,0,16.5
2021-04-05T00:07:00+09:00,3.3,�k�k��,6.2,�k�k��,10.3,90,0,0,0,16.5
2021-04-05T00:08:00+09:00,3.4,�k�k��,6.2,�k�k��,10.3,90.2,0,0,0,16.5
2021-04-05T00:09:00+09:00,3.3,�k�k��,6.1,�k�k��,10.3,90.2,0,0,0,16.5
2021-04-05T00:10:00+09:00,3.3,�k�k��,6.1,�k�k��,10.3,90.4,0,0,0,16.5
2021-04-05T00:11:00+09:00,3.4,�k�k��,6.1,�k�k��,10.3,90.5,0,0,0,16.5
2021-04-05T00:12:00+09:00,3.3,�k�k��,6.1,�k�k��,10.2,90.5,0,0,0,16.5
2021-04-05T00:13:00+09:00,3.2,�k�k��,6.1,�k�k��,10.3,90.7,0,0,0,16.5
2021-04-05T00:14:00+09:00,3.1,�k�k��,6.1,�k�k��,10.3,90.8,0,0,0,16.5
2021-04-05T00:15:00+09:00,3.2,�k�k��,6.1,�k�k��,10.2,90.8,0,0,0,16.5
2021-04-05T00:16:00+09:00,3.3,�k�k��,6.1,�k�k��,10.3,90.9,0,0,0,16.5
2021-04-05T00:17:00+09:00,3.2,�k�k��,6.1,�k�k��,10.2,90.8,0,0,0,16.5
2021-04-05T00:18:00+09:00,3.1,�k�k��,6.1,�k�k��,10.3,90.8,0,0,0,16.5
2021-04-05T00:19:00+09:00,3.3,�k�k��,6.1,�k�k��,10.3,90.8,0,0,0,16.5
2021-04-05T00:20:00+09:00,3.3,�k�k��,6.1,�k�k��,10.3,90.6,0,0,0,16.5
2021-04-05T00:21:00+09:00,3.3,�k�k��,6.1,�k�k��,10.3,90.5,0,0,0,16.5
2021-04-05T00:22:00+09:00,3.4,�k�k��,6.5,�k�k��,10.2,90.3,0,0,0,16.5
2021-04-05T00:23:00+09:00,3.5,�k�k��,6.5,�k�k��,10.3,90.4,0,0,0,16.5
2021-04-05T00:24:00+09:00,3.6,�k�k��,6.5,�k�k��,10.3,90.3,0,0,0,16.5
2021-04-05T00:25:00+09:00,3.5,�k�k��,6.5,�k�k��,10.2,90.2,0,0,0,16.5
2021-04-05T00:26:00+09:00,3.4,�k�k��,6.5,�k�k��,10.3,90.4,0,0,0,16.5
2021-04-05T00:27:00+09:00,3.4,�k�k��,6.5,�k�k��,10.3,90.4,0,0,0,16.5
2021-04-05T00:28:00+09:00,3.3,�k�k��,6.5,�k�k��,10.3,90.5,0,0,0,16.5
2021-04-05T00:29:00+09:00,3.2,�k�k��,6.5,�k�k��,10.3,90.5,0,0,0,16.5
2021-04-05T00:30:00+09:00,2.9,�k�k��,6.5,�k�k��,10.3,90.3,0,0,0,16.5
2021-04-05T00:31:00+09:00,3,�k�k��,6.5,�k�k��,10.2,90.2,0,0,0,16.5
2021-04-05T00:32:00+09:00,2.9,�k�k��,5.9,�k��,10.3,90.2,0,0,0,16.5
2021-04-05T00:33:00+09:00,2.8,�k�k��,5.9,�k��,10.2,90.2,0,0,0,16.5
2021-04-05T00:34:00+09:00,2.9,�k�k��,5.9,�k��,10.2,90,0,0,0,16.5
2021-04-05T00:35:00+09:00,2.9,�k�k��,5.9,�k��,10.2,90,0,0,0,16.5
2021-04-05T00:36:00+09:00,2.8,�k�k��,5.9,�k�k��,10.3,90.2,0,0,0,16.5
2021-04-05T00:37:00+09:00,2.9,�k�k��,6.1,�k,10.2,90.2,0,0,0,16.5
2021-04-05T00:38:00+09:00,2.9,�k�k��,6.4,�k�k��,10.2,90,0,0,0,16.5
2021-04-05T00:39:00+09:00,3,�k�k��,6.4,�k�k��,10.2,90.1,0,0,0,16.5
2021-04-05T00:40:00+09:00,3,�k�k��,6.4,�k�k��,10.2,90,0,0,0,16.5
2021-04-05T00:41:00+09:00,3,�k�k��,6.4,�k�k��,10.2,90.1,0,0,0,16.5
2021-04-05T00:42:00+09:00,2.9,�k�k��,6.4,�k�k��,10.2,90,0,0,0,16.5
2021-04-05T00:43:00+09:00,2.9,�k�k��,6.4,�k�k��,10.2,90,0,0,0,16.5
2021-04-05T00:44:00+09:00,2.8,�k�k��,6.4,�k�k��,10.2,90.1,0,0,0,16.5
2021-04-05T00:45:00+09:00,2.8,�k�k��,6.4,�k�k��,10.2,90,0,0,0,16.5
2021-04-05T00:46:00+09:00,2.8,�k�k��,6.4,�k�k��,10.2,89.9,0,0,0,16.5
2021-04-05T00:47:00+09:00,2.7,�k�k��,6.4,�k�k��,10.2,89.8,0,0,0,16.5
2021-04-05T00:48:00+09:00,2.7,�k�k��,5.2,�k�k��,10.2,89.8,0,0,0,16.5
2021-04-05T00:49:00+09:00,2.7,�k�k��,5.1,�k�k��,10.2,89.9,0,0,0,16.5
2021-04-05T00:50:00+09:00,2.6,�k�k��,5.1,�k�k��,10.2,89.9,0,0,0,16.5
2021-04-05T00:51:00+09:00,2.7,�k�k��,6.8,�k�k��,10.2,89.9,0,0,0,16.5
2021-04-05T00:52:00+09:00,2.7,�k�k��,6.8,�k�k��,10.2,89.8,0,0,0,16.5
2021-04-05T00:53:00+09:00,2.6,�k,6.8,�k�k��,10.2,89.8,0,0,0,16.5
2021-04-05T00:54:00+09:00,2.6,�k,6.8,�k�k��,10.2,90,0,0,0,16.5
2021-04-05T00:55:00+09:00,2.4,�k,6.8,�k�k��,10.2,90.1,0,0,0,16.5
2021-04-05T00:56:00+09:00,2.4,�k,6.8,�k�k��,10.2,90.2,0,0,0,16.5
2021-04-05T00:57:00+09:00,2.4,�k�k��,6.8,�k�k��,10.2,90.1,0,0,0,16.5
2021-04-05T00:58:00+09:00,2.4,�k�k��,6.8,�k�k��,10.2,90.1,0,0,0,16.5
2021-04-05T00:59:00+09:00,2.4,�k�k��,6.8,�k�k��,10.2,90,0,0,0,16.5
2021-04-05T01:00:00+09:00,2.6,�k�k��,6.8,�k�k��,10.2,90,0,0,0,16.5
2021-04-05T01:01:00+09:00,2.6,�k�k��,5.8,�k�k��,10.2,90,0,0,0,16.5
2021-04-05T01:02:00+09:00,2.7,�k�k��,6.1,�k��,10.2,90,0,0,0,16.5
2021-04-05T01:03:00+09:00,2.9,�k�k��,6.1,�k��,10.2,89.9,0,0,0,16.5
2021-04-05T01:04:00+09:00,2.9,�k�k��,6.1,�k��,10.2,89.8,0,0,0,16.5
2021-04-05T01:05:00+09:00,3.1,�k�k��,6.1,�k��,10.1,89.6,0,0,0,16.5
2021-04-05T01:06:00+09:00,3.1,�k�k��,6.1,�k��,10.1,89.7,0,0,0,16.5
2021-04-05T01:07:00+09:00,3.2,�k�k��,6.1,�k��,10.1,89.8,0,0,0,16.5
2021-04-05T01:08:00+09:00,3.1,�k�k��,6.1,�k��,10.1,89.6,0,0,0,16.5
2021-04-05T01:09:00+09:00,3.1,�k�k��,6.1,�k��,10.1,89.8,0,0,0,16.5
2021-04-05T01:10:00+09:00,2.8,�k�k��,6.1,�k��,10.1,89.9,0,0,0,16.5
2021-04-05T01:11:00+09:00,2.8,�k�k��,6.1,�k��,10.1,90,0,0,0,16.5
2021-04-05T01:12:00+09:00,2.9,�k�k��,6.3,�k�k��,10.1,90.1,0,0,0,16.5
2021-04-05T01:13:00+09:00,2.8,�k�k��,6.3,�k�k��,10.1,90,0,0,0,16.5
2021-04-05T01:14:00+09:00,2.9,�k�k��,6.6,�k��,10.1,90,0,0,0,16.5
2021-04-05T01:15:00+09:00,2.9,�k�k��,6.6,�k��,10.1,89.8,0,0,0,16.5
2021-04-05T01:16:00+09:00,3.1,�k�k��,6.6,�k��,10.1,89.7,0,0,0,16.5
2021-04-05T01:17:00+09:00,3,�k�k��,6.6,�k��,10.1,89.5,0,0,0,16.5
2021-04-05T01:18:00+09:00,3.2,�k�k��,6.6,�k��,10.1,89.4,0,0,0,16.5
2021-04-05T01:19:00+09:00,3.2,�k�k��,6.6,�k��,10.1,89.3,0,0,0,16.5
2021-04-05T01:20:00+09:00,3.2,�k�k��,6.6,�k��,10.2,89.4,0,0,0,16.5
2021-04-05T01:21:00+09:00,3.2,�k�k��,6.6,�k��,10.1,89.2,0,0,0,16.5
2021-04-05T01:22:00+09:00,3.2,�k�k��,7.5,�k��,10.1,89.2,0,0,0,16.5
2021-04-05T01:23:00+09:00,3.1,�k�k��,7.5,�k��,10.2,89.3,0,0,0,16.5
2021-04-05T01:24:00+09:00,3,�k�k��,7.5,�k��,10.1,88.9,0,0,0,16.5
2021-04-05T01:25:00+09:00,3.1,�k�k��,7.5,�k��,10.1,88.9,0,0,0,16.5
2021-04-05T01:26:00+09:00,3,�k�k��,7.5,�k��,10.1,89,0,0,0,16.5
2021-04-05T01:27:00+09:00,3.1,�k�k��,7.5,�k��,10.1,89.1,0,0,0,16.5
2021-04-05T01:28:00+09:00,3,�k�k��,7.5,�k��,10.1,89.2,0,0,0,16.5
2021-04-05T01:29:00+09:00,3.1,�k�k��,7.5,�k��,10.1,89.4,0,0,0,16.5
2021-04-05T01:30:00+09:00,3.2,�k�k��,7.5,�k��,10.1,89.2,0,0,0,16.5
2021-04-05T01:31:00+09:00,3.3,�k�k��,7.5,�k��,10.1,89.3,0,0,0,16.5
2021-04-05T01:32:00+09:00,3.2,�k�k��,7.3,�k�k��,10.1,89.3,0,0,0,16.5
2021-04-05T01:33:00+09:00,3.2,�k�k��,7.3,�k�k��,10.1,89.4,0,0,0,16.5
2021-04-05T01:34:00+09:00,3.2,�k�k��,7.3,�k�k��,10.1,89.4,0,0,0,16.5
2021-04-05T01:35:00+09:00,3.1,�k�k��,7.3,�k�k��,10.1,89.6,0,0,0,16.5
2021-04-05T01:36:00+09:00,2.9,�k�k��,7.3,�k�k��,10.1,89.7,0,0,0,16.5
2021-04-05T01:37:00+09:00,3.1,�k�k��,7.3,�k�k��,10.1,89.7,0,0,0,16.5
2021-04-05T01:38:00+09:00,3,�k�k��,7.3,�k�k��,10.1,89.5,0,0,0,16.5
2021-04-05T01:39:00+09:00,3,�k�k��,6.1,�k�k��,10.1,89.5,0,0,0,16.5
2021-04-05T01:40:00+09:00,3,�k�k��,6.6,�k�k��,10.1,89.5,0,0,0,16.5
2021-04-05T01:41:00+09:00,3,�k�k��,6.6,�k�k��,10.1,89.3,0,0,0,16.5
2021-04-05T01:42:00+09:00,3,�k�k��,6.6,�k�k��,10.1,89.3,0,0,0,16.5
2021-04-05T01:43:00+09:00,3,�k�k��,6.6,�k�k��,10.1,89.3,0,0,0,16.5
2021-04-05T01:44:00+09:00,3.1,�k�k��,6.6,�k�k��,10.1,89.4,0,0,0,16.5
2021-04-05T01:45:00+09:00,3.2,�k�k��,6.6,�k�k��,10.1,89.3,0,0,0,16.5
2021-04-05T01:46:00+09:00,3.2,�k�k��,6.6,�k�k��,10.1,89.1,0,0,0,16.5
2021-04-05T01:47:00+09:00,3.2,�k�k��,6.6,�k�k��,10.1,89.2,0,0,0,16.5
2021-04-05T01:48:00+09:00,3.3,�k�k��,6.6,�k�k��,10.1,89.2,0,0,0,16.5
2021-04-05T01:49:00+09:00,3.3,�k�k��,6.6,�k�k��,10.1,89.3,0,0,0,16.5
2021-04-05T01:50:00+09:00,3.4,�k�k��,6.6,�k�k��,10.1,89.1,0,0,0,16.5
2021-04-05T01:51:00+09:00,3.4,�k�k��,6.6,�k�k��,10.1,89,0,0,0,16.5
2021-04-05T01:52:00+09:00,3.3,�k�k��,6.6,�k�k��,10.1,89.1,0,0,0,16.5
2021-04-05T01:53:00+09:00,3.2,�k�k��,6.6,�k�k��,10.1,89.2,0,0,0,16.5
2021-04-05T01:54:00+09:00,3,�k�k��,6.6,�k�k��,10.1,89.4,0,0,0,16.5
2021-04-05T01:55:00+09:00,2.8,�k�k��,6.6,�k�k��,10.1,89.4,0,0,0,16.5
2021-04-05T01:56:00+09:00,2.8,�k�k��,6.6,�k�k��,10.1,89.5,0,0,0,16.5
2021-04-05T01:57:00+09:00,2.8,�k�k��,6.6,�k�k��,10.1,89.5,0,0,0,16.5
2021-04-05T01:58:00+09:00,2.7,�k�k��,6.6,�k�k��,10,89.2,0,0,0,16.5
2021-04-05T01:59:00+09:00,2.6,�k�k��,6.6,�k�k��,10.1,89,0,0,0,16.5
2021-04-05T02:00:00+09:00,2.5,�k�k��,5.9,�k��,10,89,0,0,0,16.5
2021-04-05T02:01:00+09:00,2.4,�k�k��,5.2,�k�k��,10,89,0,0,0,16.5
2021-04-05T02:02:00+09:00,2.4,�k�k��,5.2,�k�k��,10,88.9,0,0,0,16.5
2021-04-05T02:03:00+09:00,2.4,�k�k��,5.2,�k�k��,10.1,89,0,0,0,16.5
2021-04-05T02:04:00+09:00,2.5,�k�k��,5.2,�k�k��,10.1,89.3,0,0,0,16.5
2021-04-05T02:05:00+09:00,2.6,�k�k��,5.2,�k�k��,10.1,88.9,0,0,0,16.5
2021-04-05T02:06:00+09:00,2.4,�k�k��,5.2,�k�k��,10.1,88.8,0,0,0,16.5
2021-04-05T02:07:00+09:00,2.4,�k�k��,5.2,�k�k��,10.1,88.8,0,0,0,16.5
2021-04-05T02:08:00+09:00,2.3,�k�k��,5.2,�k�k��,10.1,88.7,0,0,0,16.5
2021-04-05T02:09:00+09:00,2.2,�k�k��,5,�k,10.1,88.6,0,0,0,16.5
2021-04-05T02:10:00+09:00,2.3,�k�k��,5.1,�k�k��,10.1,88.6,0,0,0,16.5
2021-04-05T02:11:00+09:00,2.3,�k�k��,5.1,�k�k��,10.1,88.5,0,0,0,16.5
2021-04-05T02:12:00+09:00,2.5,�k�k��,6,�k�k��,10.1,88.5,0,0,0,16.5
2021-04-05T02:13:00+09:00,2.5,�k�k��,6,�k�k��,10.1,88.4,0,0,0,16.5
2021-04-05T02:14:00+09:00,2.4,�k,6,�k�k��,10.1,88.2,0,0,0,16.5
2021-04-05T02:15:00+09:00,2.4,�k,6,�k�k��,10.1,87.9,0,0,0,16.5
2021-04-05T02:16:00+09:00,2.5,�k,6,�k�k��,10.1,88,0,0,0,16.5
2021-04-05T02:17:00+09:00,2.4,�k,6,�k�k��,10.1,88,0,0,0,16.5
2021-04-05T02:18:00+09:00,2.4,�k�k��,6,�k�k��,10.1,88.1,0,0,0,16.5
2021-04-05T02:19:00+09:00,2.4,�k�k��,6,�k�k��,10.1,88,0,0,0,16.5
2021-04-05T02:20:00+09:00,2.4,�k�k��,6,�k�k��,10.1,88.2,0,0,0,16.5
2021-04-05T02:21:00+09:00,2.5,�k�k��,6,�k�k��,10.1,88.1,0,0,0,16.5
2021-04-05T02:22:00+09:00,2.3,�k�k��,5,�k�k��,10.1,88,0,0,0,16.5
2021-04-05T02:23:00+09:00,2.4,�k�k��,5.7,�k�k��,10.1,87.9,0,0,0,16.5
2021-04-05T02:24:00+09:00,2.6,�k�k��,5.7,�k�k��,10.1,87.8,0,0,0,16.5
2021-04-05T02:25:00+09:00,2.7,�k�k��,6.2,�k,10.1,87.6,0,0,0,16.5
2021-04-05T02:26:00+09:00,2.9,�k�k��,6.2,�k,10.1,87.3,0,0,0,16.5
2021-04-05T02:27:00+09:00,3,�k�k��,6.3,�k��,10.1,87.1,0,0,0,16.5
2021-04-05T02:28:00+09:00,3,�k�k��,6.3,�k��,10.1,87.2,0,0,0,16.5
2021-04-05T02:29:00+09:00,3.2,�k�k��,6.8,�k��,10.1,87.1,0,0,0,16.5
2021-04-05T02:30:00+09:00,3.3,�k�k��,6.8,�k��,10.1,86.9,0,0,0,16.5
2021-04-05T02:31:00+09:00,3.3,�k�k��,6.8,�k��,10.1,86.6,0,0,0,16.5
2021-04-05T02:32:00+09:00,3.3,�k�k��,6.8,�k��,10.1,86.6,0,0,0,16.5
2021-04-05T02:33:00+09:00,3.2,�k�k��,6.8,�k��,10.1,86.4,0,0,0,16.5
2021-04-05T02:34:00+09:00,3.2,�k�k��,6.8,�k��,10.1,86.4,0,0,0,16.5
2021-04-05T02:35:00+09:00,3.2,�k�k��,6.8,�k��,10.1,86.2,0,0,0,16.5
2021-04-05T02:36:00+09:00,3.1,�k�k��,6.8,�k��,10.1,86.2,0,0,0,16.5
2021-04-05T02:37:00+09:00,3.1,�k�k��,6.8,�k��,10.1,86.3,0,0,0,16.5
2021-04-05T02:38:00+09:00,3.2,�k�k��,6.8,�k��,10.1,86.2,0,0,0,16.5
2021-04-05T02:39:00+09:00,3.1,�k�k��,6.7,�k�k��,10.1,86.2,0,0,0,16.5
2021-04-05T02:40:00+09:00,3.1,�k�k��,6.2,�k��,10.1,86.3,0,0,0,16.5
2021-04-05T02:41:00+09:00,3,�k�k��,6.2,�k��,10.1,86.3,0,0,0,16.5
2021-04-05T02:42:00+09:00,3.2,�k�k��,7.1,�k�k��,10.1,86.1,0,0,0,16.5
2021-04-05T02:43:00+09:00,3.5,�k�k��,7.5,�k��,10.1,85.8,0,0,0,16.5
2021-04-05T02:44:00+09:00,3.4,�k�k��,7.5,�k��,10.1,85.7,0,0,0,16.5
2021-04-05T02:45:00+09:00,3.4,�k�k��,7.5,�k��,10.1,85.7,0,0,0,16.5
2021-04-05T02:46:00+09:00,3.5,�k�k��,7.5,�k��,10.1,85.7,0,0,0,16.5
2021-04-05T02:47:00+09:00,3.7,�k�k��,7.5,�k��,10.1,85.8,0,0,0,16.5
2021-04-05T02:48:00+09:00,3.6,�k�k��,7.5,�k��,10.1,85.9,0,0,0,16.5
2021-04-05T02:49:00+09:00,3.5,�k�k��,7.5,�k��,10.1,85.9,0,0,0,16.5
2021-04-05T02:50:00+09:00,3.5,�k�k��,7.5,�k��,10.1,85.9,0,0,0,16.5
2021-04-05T02:51:00+09:00,3.6,�k�k��,7.5,�k��,10.1,85.8,0,0,0,16.5
2021-04-05T02:52:00+09:00,3.7,�k�k��,7.5,�k��,10.1,85.6,0,0,0,16.5
2021-04-05T02:53:00+09:00,3.6,�k�k��,7,�k��,10.1,85.4,0,0,0,16.5
2021-04-05T02:54:00+09:00,3.8,�k�k��,7,�k��,10.1,85.3,0,0,0,16.5
2021-04-05T02:55:00+09:00,3.8,�k�k��,7,�k��,10.1,85.1,0,0,0,16.5
2021-04-05T02:56:00+09:00,3.8,�k�k��,7,�k��,10.1,85.1,0,0,0,16.5
2021-04-05T02:57:00+09:00,3.8,�k�k��,7.1,�k��,10.1,85,0,0,0,16.5
2021-04-05T02:58:00+09:00,3.8,�k�k��,7.1,�k��,10.1,84.8,0,0,0,16.5
2021-04-05T02:59:00+09:00,3.8,�k�k��,7.1,�k��,10.1,84.3,0,0,0,16.5
2021-04-05T03:00:00+09:00,3.9,�k�k��,7.1,�k��,10.1,84.1,0,0,0,16.5
2021-04-05T03:01:00+09:00,3.8,�k�k��,7.1,�k��,10.1,84.1,0,0,0,16.5
2021-04-05T03:02:00+09:00,3.7,�k�k��,7.1,�k��,10.1,84.2,0,0,0,16.5
2021-04-05T03:03:00+09:00,3.6,�k�k��,8.5,���k��,10.1,84,0,0,0,16.5
2021-04-05T03:04:00+09:00,3.7,�k�k��,8.5,���k��,10.1,83.9,0,0,0,16.5
2021-04-05T03:05:00+09:00,3.8,�k�k��,8.5,���k��,10.1,83.5,0,0,0,16.5
2021-04-05T03:06:00+09:00,3.9,�k�k��,8.5,���k��,10.1,83.4,0,0,0,16.5
2021-04-05T03:07:00+09:00,3.7,�k�k��,8.5,���k��,10.1,83.2,0,0,0,16.5
2021-04-05T03:08:00+09:00,3.8,�k�k��,8.5,���k��,10.1,83,0,0,0,16.5
2021-04-05T03:09:00+09:00,3.8,�k�k��,8.5,���k��,10.1,83,0,0,0,16.5
2021-04-05T03:10:00+09:00,3.9,�k�k��,9.4,�k��,10.1,82.8,0,0,0,16.5
2021-04-05T03:11:00+09:00,4.1,�k�k��,9.4,�k��,10.1,82.9,0,0,0,16.5
2021-04-05T03:12:00+09:00,4.2,�k�k��,9.4,�k��,10.1,82.9,0,0,0,16.5
2021-04-05T03:13:00+09:00,4.2,�k�k��,9.4,�k��,10,83.3,0,0,0,16.5
2021-04-05T03:14:00+09:00,4.1,�k�k��,9.4,�k��,10,83.4,0,0,0,16.5
2021-04-05T03:15:00+09:00,4,�k�k��,9.4,�k��,10,83.4,0,0,0,16.5
2021-04-05T03:16:00+09:00,3.9,�k�k��,9.4,�k��,10,83.5,0,0,0,16.5
2021-04-05T03:17:00+09:00,4.1,�k�k��,9.4,�k��,10,83.4,0,0,0,16.5
2021-04-05T03:18:00+09:00,4,�k�k��,9.4,�k��,10,83.5,0,0,0,16.5
2021-04-05T03:19:00+09:00,4,�k�k��,9.4,�k��,10,83.9,0,0,0,16.5
2021-04-05T03:20:00+09:00,3.9,�k�k��,7.9,�k��,9.9,84,0,0,0,16.5
2021-04-05T03:21:00+09:00,4.1,�k�k��,8.2,�k��,10,83.9,0,0,0,16.5
2021-04-05T03:22:00+09:00,4,�k�k��,8.2,�k��,10,83.6,0,0,0,16.5
2021-04-05T03:23:00+09:00,3.9,�k�k��,8.2,�k��,10,83.5,0,0,0,16.5
2021-04-05T03:24:00+09:00,4,�k�k��,8.2,�k��,10,83.5,0,0,0,16.5
2021-04-05T03:25:00+09:00,3.9,�k�k��,8.2,�k��,9.9,83.3,0,0,0,16.5
2021-04-05T03:26:00+09:00,4,�k�k��,8.2,�k��,10,83.2,0,0,0,16.5
2021-04-05T03:27:00+09:00,4.1,�k�k��,8.2,�k��,10,83.1,0,0,0,16.5
2021-04-05T03:28:00+09:00,4.2,�k�k��,8.2,�k��,10,82.8,0,0,0,16.5
2021-04-05T03:29:00+09:00,4.1,�k�k��,8.2,�k��,10,82.7,0,0,0,16.5
2021-04-05T03:30:00+09:00,4,�k�k��,8.2,�k��,10,82.7,0,0,0,16.5
2021-04-05T03:31:00+09:00,3.7,�k�k��,8,�k�k��,9.9,82.7,0,0,0,16.5
2021-04-05T03:32:00+09:00,3.6,�k�k��,8,�k�k��,9.9,83.1,0,0,0,16.5
2021-04-05T03:33:00+09:00,3.5,�k�k��,8,�k�k��,9.9,83,0,0,0,16.5
2021-04-05T03:34:00+09:00,3.4,�k�k��,8,�k�k��,9.9,83,0,0,0,16.5
2021-04-05T03:35:00+09:00,3.5,�k�k��,8,�k�k��,10,83,0,0,0,16.5
2021-04-05T03:36:00+09:00,3.4,�k�k��,8,�k�k��,9.9,82.9,0,0,0,16.5
2021-04-05T03:37:00+09:00,3.2,�k�k��,7.9,�k,9.9,82.8,0,0,0,16.5
2021-04-05T03:38:00+09:00,2.9,�k�k��,7.9,�k,9.9,83,0,0,0,16.5
2021-04-05T03:39:00+09:00,2.9,�k�k��,6.8,�k��,9.9,83.3,0,0,0,16.5
2021-04-05T03:40:00+09:00,2.7,�k�k��,6.8,�k��,9.8,83.6,0,0,0,16.5
2021-04-05T03:41:00+09:00,2.7,�k�k��,6.8,�k��,9.8,83.6,0,0,0,16.5
2021-04-05T03:42:00+09:00,2.8,�k�k��,6.8,�k��,9.8,83.6,0,0,0,16.5
2021-04-05T03:43:00+09:00,2.9,�k�k��,6.8,�k��,9.8,83.5,0,0,0,16.5
2021-04-05T03:44:00+09:00,2.7,�k�k��,6.7,�k�k��,9.9,83.4,0,0,0,16.5
2021-04-05T03:45:00+09:00,2.6,�k�k��,6.7,�k�k��,9.8,83.5,0,0,0,16.5
2021-04-05T03:46:00+09:00,2.4,�k�k��,6.7,�k�k��,9.8,83.6,0,0,0,16.5
2021-04-05T03:47:00+09:00,2.3,�k�k��,6.7,�k�k��,9.8,83.7,0,0,0,16.5
2021-04-05T03:48:00+09:00,2.6,�k�k��,6.7,�k�k��,9.8,83.8,0,0,0,16.5
2021-04-05T03:49:00+09:00,2.7,�k�k��,6.9,�k�k��,9.8,83.8,0,0,0,16.5
2021-04-05T03:50:00+09:00,2.9,�k�k��,6.9,�k�k��,9.8,83.9,0,0,0,16.5
2021-04-05T03:51:00+09:00,3.1,�k�k��,7.9,�k��,9.8,83.7,0,0,0,16.5
2021-04-05T03:52:00+09:00,3.3,�k�k��,8.3,�k��,9.8,83.7,0,0,0,16.5
2021-04-05T03:53:00+09:00,3.3,�k�k��,8.3,�k��,9.8,83.7,0,0,0,16.5
2021-04-05T03:54:00+09:00,3.4,�k�k��,8.3,�k��,9.8,83.8,0,0,0,16.5
2021-04-05T03:55:00+09:00,3.5,�k�k��,8.3,�k��,9.8,83.7,0,0,0,16.5
2021-04-05T03:56:00+09:00,3.7,�k�k��,8.3,�k��,9.8,83.7,0,0,0,16.5
2021-04-05T03:57:00+09:00,4,�k�k��,8.3,�k��,9.8,83.9,0,0,0,16.5
2021-04-05T03:58:00+09:00,4.2,�k�k��,8.3,�k��,9.8,83.7,0,0,0,16.5
2021-04-05T03:59:00+09:00,4.2,�k�k��,8.3,�k��,9.8,83.7,0,0,0,16.5
2021-04-05T04:00:00+09:00,4.1,�k�k��,8.3,�k��,9.8,83.6,0,0,0,16.5
2021-04-05T04:01:00+09:00,4.2,�k�k��,8.3,�k��,9.7,83.4,0,0,0,16.5
2021-04-05T04:02:00+09:00,4.2,�k�k��,8.7,�k��,9.8,83.3,0,0,0,16.5
2021-04-05T04:03:00+09:00,4.2,�k�k��,8.7,�k��,9.7,83.4,0,0,0,16.5
2021-04-05T04:04:00+09:00,4.4,�k�k��,8.7,�k��,9.7,83.4,0,0,0,16.5
2021-04-05T04:05:00+09:00,4.5,�k�k��,8.7,�k��,9.7,83.2,0,0,0,16.5
2021-04-05T04:06:00+09:00,4.6,�k�k��,8.7,�k��,9.7,83.4,0,0,0,16.5
2021-04-05T04:07:00+09:00,4.5,�k�k��,8.7,�k��,9.7,83.5,0,0,0,16.5
2021-04-05T04:08:00+09:00,4.3,�k�k��,8.7,�k��,9.7,83.6,0,0,0,16.5
2021-04-05T04:09:00+09:00,4.4,�k�k��,8.7,�k��,9.7,83.6,0,0,0,16.5
2021-04-05T04:10:00+09:00,4.4,�k�k��,8.7,�k��,9.7,83.4,0,0,0,16.5
2021-04-05T04:11:00+09:00,4.3,�k�k��,8.7,�k��,9.7,83.1,0,0,0,16.5
2021-04-05T04:12:00+09:00,4.2,�k�k��,8.2,�k�k��,9.7,82.8,0,0,0,16.5
2021-04-05T04:13:00+09:00,4.1,�k�k��,8.2,�k�k��,9.7,82.5,0,0,0,16.5
2021-04-05T04:14:00+09:00,3.9,�k�k��,7.8,�k�k��,9.7,82.5,0,0,0,16.5
2021-04-05T04:15:00+09:00,3.7,�k�k��,7.6,�k�k��,9.7,82.6,0,0,0,16.5
2021-04-05T04:16:00+09:00,3.8,�k�k��,7.6,�k�k��,9.7,82.5,0,0,0,16.5
2021-04-05T04:17:00+09:00,3.7,�k�k��,7.6,�k�k��,9.7,82.3,0,0,0,16.5
2021-04-05T04:18:00+09:00,3.7,�k�k��,7.6,�k�k��,9.7,82.3,0,0,0,16.5
2021-04-05T04:19:00+09:00,3.7,�k�k��,9.4,�k�k��,9.7,82.3,0,0,0,16.5
2021-04-05T04:20:00+09:00,3.7,�k�k��,9.4,�k�k��,9.7,82.3,0,0,0,16.5
2021-04-05T04:21:00+09:00,3.7,�k�k��,9.4,�k�k��,9.7,82.1,0,0,0,16.5
2021-04-05T04:22:00+09:00,3.7,�k�k��,9.4,�k�k��,9.7,82.2,0,0,0,16.5
2021-04-05T04:23:00+09:00,3.7,�k�k��,9.4,�k�k��,9.7,82,0,0,0,16.5
2021-04-05T04:24:00+09:00,3.6,�k�k��,9.4,�k�k��,9.7,82.1,0,0,0,16.5
2021-04-05T04:25:00+09:00,3.6,�k�k��,9.4,�k�k��,9.7,82.1,0,0,0,16.5
2021-04-05T04:26:00+09:00,3.6,�k�k��,9.4,�k�k��,9.7,82.2,0,0,0,16.5
2021-04-05T04:27:00+09:00,3.7,�k�k��,9.4,�k�k��,9.7,82.1,0,0,0,16.5
2021-04-05T04:28:00+09:00,3.8,�k�k��,9.4,�k�k��,9.7,82.1,0,0,0,16.5
2021-04-05T04:29:00+09:00,3.8,�k�k��,8,�k��,9.7,82.3,0,0,0,16.5
2021-04-05T04:30:00+09:00,3.8,�k�k��,8,�k��,9.6,82.1,0,0,0,16.5
2021-04-05T04:31:00+09:00,3.8,�k�k��,8.2,�k�k��,9.6,82.1,0,0,0,16.5
2021-04-05T04:32:00+09:00,3.8,�k�k��,8.2,�k�k��,9.6,82.1,0,0,0,16.5
2021-04-05T04:33:00+09:00,4,�k�k��,9,�k��,9.7,82.3,0,0,0,16.5
2021-04-05T04:34:00+09:00,4.1,�k�k��,9,�k��,9.6,82.1,0,0,0,16.5
2021-04-05T04:35:00+09:00,4.1,�k�k��,9,�k��,9.7,82.2,0,0,0,16.5
2021-04-05T04:36:00+09:00,3.9,�k�k��,9,�k��,9.6,82.2,0,0,0,16.5
2021-04-05T04:37:00+09:00,4,�k�k��,9,�k��,9.6,82.2,0,0,0,16.5
2021-04-05T04:38:00+09:00,4,�k�k��,9,�k��,9.6,82,0,0,0,16.5
2021-04-05T04:39:00+09:00,3.9,�k�k��,9,�k��,9.6,82.1,0,0,0,16.5
2021-04-05T04:40:00+09:00,3.8,�k�k��,9,�k��,9.7,82.1,0,0,0,16.5
2021-04-05T04:41:00+09:00,3.8,�k�k��,9,�k��,9.6,82.1,0,0,0,16.5
2021-04-05T04:42:00+09:00,3.5,�k�k��,9,�k��,9.6,82,0,0,0,16.5
2021-04-05T04:43:00+09:00,3.4,�k�k��,7.9,�k�k��,9.6,82.1,0,0,0,16.5
2021-04-05T04:44:00+09:00,3.4,�k�k��,7.9,�k�k��,9.6,82.3,0,0,0,16.5
2021-04-05T04:45:00+09:00,3.3,�k�k��,7.9,�k�k��,9.6,82.4,0,0,0,16.5
2021-04-05T04:46:00+09:00,3.3,�k�k��,7.9,�k�k��,9.6,82.9,0,0,0,16.5
2021-04-05T04:47:00+09:00,3.1,�k�k��,6.9,�k�k��,9.6,82.9,0,0,0,16.5
2021-04-05T04:48:00+09:00,3.1,�k�k��,7.2,�k��,9.6,82.8,0,0,0,16.5
2021-04-05T04:49:00+09:00,3.2,�k�k��,8.2,�k��,9.6,82.7,0,0,0,16.5
2021-04-05T04:50:00+09:00,3.4,�k�k��,8.5,�k,9.6,82.4,0,0,0,16.5
2021-04-05T04:51:00+09:00,3.5,�k�k��,8.5,�k,9.6,82.4,0,0,0,16.5
2021-04-05T04:52:00+09:00,3.8,�k�k��,8.5,�k,9.6,82.4,0,0,0,16.5
2021-04-05T04:53:00+09:00,3.6,�k�k��,8.5,�k,9.5,82.5,0,0,0,16.5
2021-04-05T04:54:00+09:00,3.5,�k�k��,8.5,�k,9.5,82.7,0,0,0,16.5
2021-04-05T04:55:00+09:00,3.6,�k�k��,8.5,�k,9.5,82.8,0,0,0,16.5
2021-04-05T04:56:00+09:00,3.8,�k�k��,9.9,�k��,9.5,82.7,0,0,0,16.5
2021-04-05T04:57:00+09:00,3.8,�k�k��,9.9,�k��,9.5,82.6,0,0,0,16.5
2021-04-05T04:58:00+09:00,3.9,�k�k��,10.8,�k��,9.5,82.6,0,0,0,16.5
2021-04-05T04:59:00+09:00,3.9,�k�k��,10.8,�k��,9.5,82.5,0,0,0,16.5
2021-04-05T05:00:00+09:00,4,�k�k��,10.8,�k��,9.5,82.6,0,0,0,16.5
2021-04-05T05:01:00+09:00,3.8,�k�k��,10.8,�k��,9.5,82.8,0,0,0,16.5
2021-04-05T05:02:00+09:00,3.8,�k�k��,10.8,�k��,9.5,82.9,0,0,0,16.5
2021-04-05T05:03:00+09:00,3.9,�k�k��,10.8,�k��,9.4,82.7,0,0,0,16.5
2021-04-05T05:04:00+09:00,4.2,�k�k��,10.8,�k��,9.5,82.6,0,0,0,16.5
2021-04-05T05:05:00+09:00,4.2,�k�k��,10.8,�k��,9.5,82.6,0,0,0,16.5
2021-04-05T05:06:00+09:00,4.2,�k�k��,10.8,�k��,9.5,82.6,0,0,0,16.5
2021-04-05T05:07:00+09:00,4,�k�k��,10.8,�k��,9.5,82.4,0,0,0,16.5
2021-04-05T05:08:00+09:00,3.9,�k�k��,8.2,�k�k��,9.5,82,0,0,0,16.5
2021-04-05T05:09:00+09:00,3.8,�k�k��,7.9,�k��,9.5,81.7,0,0,0,16.5
2021-04-05T05:10:00+09:00,3.7,�k�k��,7.9,�k��,9.5,81.6,0,0,0,16.5
2021-04-05T05:11:00+09:00,3.8,�k�k��,7.9,�k��,9.5,81.7,0,0,0,16.5
2021-04-05T05:12:00+09:00,3.6,�k�k��,7.9,�k��,9.4,81.9,0,0,0,16.5
2021-04-05T05:13:00+09:00,3.4,�k�k��,7.9,�k��,9.4,81.9,0,0,0,16.5
2021-04-05T05:14:00+09:00,3.3,�k�k��,7.9,�k��,9.4,81.9,0,0,0,16.5
2021-04-05T05:15:00+09:00,3.4,�k�k��,9.1,�k��,9.4,81.8,0,0,0,16.5
2021-04-05T05:16:00+09:00,3.6,�k�k��,9.1,�k��,9.4,81.8,0,0,0,16.5
2021-04-05T05:17:00+09:00,3.6,�k�k��,9.1,�k��,9.4,81.5,0,0,0,16.5
2021-04-05T05:18:00+09:00,3.3,�k�k��,9.1,�k��,9.4,81.4,0,0,0,16.5
2021-04-05T05:19:00+09:00,3.3,�k�k��,9.1,�k��,9.4,81.5,0,0,0,16.5
2021-04-05T05:20:00+09:00,3.1,�k�k��,9.1,�k��,9.4,81.7,0,0,0,16.5
2021-04-05T05:21:00+09:00,3.1,�k�k��,9.1,�k��,9.4,81.2,0,0,0,16.5
2021-04-05T05:22:00+09:00,3.3,�k�k��,9.8,�k�k��,9.4,81.3,0,0,0,16.5
2021-04-05T05:23:00+09:00,3.4,�k�k��,9.8,�k�k��,9.4,81.4,0,0,0,16.5
2021-04-05T05:24:00+09:00,3.4,�k�k��,9.8,�k�k��,9.4,81.5,0,0,0,16.5
2021-04-05T05:25:00+09:00,3.1,�k�k��,9.8,�k�k��,9.4,81.8,0,0,0,16.5
2021-04-05T05:26:00+09:00,3,�k�k��,9.8,�k�k��,9.4,81.6,0,0,0,16.5
2021-04-05T05:27:00+09:00,2.9,�k�k��,9.8,�k�k��,9.3,81.7,0,0,0,16.5
2021-04-05T05:28:00+09:00,2.9,�k�k��,9.8,�k�k��,9.3,81.8,0,0,0,16.5
2021-04-05T05:29:00+09:00,3,�k�k��,9.8,�k�k��,9.3,82.1,0,0,0,16.5
2021-04-05T05:30:00+09:00,3,�k�k��,9.8,�k�k��,9.3,82.2,0,0,0,16.5
2021-04-05T05:31:00+09:00,2.8,�k�k��,9.8,�k�k��,9.3,82.5,0,0,0,16.5
2021-04-05T05:32:00+09:00,2.7,�k,5.6,�k,9.2,82.4,0,0,0,16.5
2021-04-05T05:33:00+09:00,2.9,�k�k��,8.2,�k��,9.2,82.4,0,0,0,16.5
2021-04-05T05:34:00+09:00,3,�k,8.2,�k��,9.2,82.3,0,0,0,16.5
2021-04-05T05:35:00+09:00,2.9,�k,8.2,�k��,9.2,82.7,0,0,0,16.5
2021-04-05T05:36:00+09:00,2.8,�k,8.2,�k��,9.1,82.7,0,0,0,16.5
2021-04-05T05:37:00+09:00,2.9,�k,8.2,�k��,9.1,82.7,0,0,0,16.5
2021-04-05T05:38:00+09:00,3.1,�k,8.2,�k��,9,82.1,0,0,0,16.5
2021-04-05T05:39:00+09:00,3,�k,8.2,�k��,9,81.5,0,0,0,16.5
2021-04-05T05:40:00+09:00,3.1,�k,8.2,�k��,9,80.9,0,0,0,16.5
2021-04-05T05:41:00+09:00,3.2,�k,8.2,�k��,9,80.5,0,0,0,16.5
2021-04-05T05:42:00+09:00,3,�k,8.2,�k��,9,80,0,0,0,16.5
2021-04-05T05:43:00+09:00,2.9,�k,7.2,�k��,9,79.9,0,0,0,16.5
2021-04-05T05:44:00+09:00,2.7,�k,7.2,�k��,9,79.8,0,0,0,16.5
2021-04-05T05:45:00+09:00,2.7,�k,7.2,�k��,9,80,0,0,0,16.5
2021-04-05T05:46:00+09:00,2.7,�k,7.2,�k��,9,79.7,0,0,0,16.5
2021-04-05T05:47:00+09:00,2.6,�k,7.2,�k��,9,79.7,0,0,0,16.5
2021-04-05T05:48:00+09:00,2.5,�k,6.3,�k��,9,79.3,0,0,0,16.5
2021-04-05T05:49:00+09:00,2.5,�k,6.3,�k��,8.9,78.8,0,0,0,16.5
2021-04-05T05:50:00+09:00,2.5,�k,7.4,�k��,8.9,78.4,0,0,0,16.5
2021-04-05T05:51:00+09:00,2.6,�k,7.4,�k��,9,77.7,0,0,0,16.5
2021-04-05T05:52:00+09:00,2.8,�k,7.4,�k��,8.9,77.4,0,0,0,16.5
2021-04-05T05:53:00+09:00,2.8,�k,7.4,�k��,8.9,77.1,0,0,0,16.5
2021-04-05T05:54:00+09:00,2.9,�k,7.4,�k��,8.9,77.1,0,0,0,16.5
2021-04-05T05:55:00+09:00,2.7,�k,7.4,�k��,8.9,76.9,0,0,0,16.5
2021-04-05T05:56:00+09:00,2.6,�k,7.4,�k��,8.9,77.2,0,0,0,16.5
2021-04-05T05:57:00+09:00,2.8,�k,7.4,�k��,8.8,77.1,0,0,0,16.5
2021-04-05T05:58:00+09:00,2.8,�k,7.4,�k��,8.8,77.2,0,0,0,16.5
2021-04-05T05:59:00+09:00,2.8,�k,7.4,�k��,8.8,77.1,0,0,0,16.5